| time (UTC) | temp C | wind direction | speed KPH | gust KPH | rain 1hr cm | rain 24hr cm | rain mn cm | humidity % | barometer mb |
| 20260506020001 | 10 | 34 | 6.4 | 9.7 | 0.00 | 0.08 | 0.00 | 73 | 1012.5 |
| 20260506014501 | 10 | 321 | 0.0 | 12.9 | 0.00 | 0.08 | 0.00 | 71 | 1012.5 |
| 20260506013001 | 10 | 358 | 3.2 | 6.4 | 0.00 | 0.08 | 0.00 | 70 | 1011.5 |
| 20260506011501 | 10 | 271 | 6.4 | 9.7 | 0.00 | 0.08 | 0.00 | 71 | 1011.5 |
| 20260506010001 | 10 | 3 | 0.0 | 6.4 | 0.00 | 0.08 | 0.00 | 71 | 1011.5 |
| 20260506004501 | 10 | 20 | 9.7 | 12.9 | 0.00 | 0.08 | 0.00 | 71 | 1011.5 |
| 20260506003001 | 10 | 323 | 3.2 | 6.4 | 0.00 | 0.08 | 0.00 | 71 | 1011.5 |
| 20260506001501 | 10 | 67 | 3.2 | 17.7 | 0.00 | 0.08 | 0.00 | 71 | 1011.5 |
| 20260506000001 | 10 | 313 | 9.7 | 9.7 | 0.00 | 0.08 | 0.00 | 70 | 1011.5 |
| 20260505234501 | 10 | 178 | 9.7 | 12.9 | 0.00 | 0.08 | 0.00 | 69 | 1011.5 |
| 20260505233001 | 10 | 317 | 6.4 | 12.9 | 0.00 | 0.08 | 0.00 | 67 | 1011.5 |
| 20260505231501 | 11 | 256 | 6.4 | 12.9 | 0.00 | 0.08 | 0.00 | 67 | 1010.5 |
| 20260505224501 | 11 | 314 | 3.2 | 17.7 | 0.00 | 0.08 | 0.00 | 66 | 1010.5 |
| 20260505223001 | 11 | 264 | 3.2 | 12.9 | 0.00 | 0.08 | 0.00 | 65 | 1010.5 |
| 20260505221501 | 11 | 197 | 6.4 | 6.4 | 0.00 | 0.08 | 0.00 | 64 | 1009.5 |
| 20260505220001 | 11 | 156 | 12.9 | 12.9 | 0.00 | 0.08 | 0.00 | 64 | 1009.5 |
| 20260505214501 | 11 | 4 | 17.7 | 20.9 | 0.00 | 0.08 | 0.00 | 64 | 1009.5 |
| 20260505213001 | 12 | 46 | 20.9 | 20.9 | 0.00 | 0.08 | 0.00 | 63 | 1009.5 |
| 20260505211501 | 12 | 340 | 9.7 | 12.9 | 0.00 | 0.08 | 0.00 | 64 | 1009.5 |
| 20260505210001 | 12 | 274 | 6.4 | 12.9 | 0.00 | 0.08 | 0.00 | 64 | 1009.5 |
| 20260505204501 | 12 | 36 | 12.9 | 12.9 | 0.00 | 0.08 | 0.00 | 64 | 1009.5 |
| 20260505203001 | 12 | 35 | 6.4 | 9.7 | 0.00 | 0.08 | 0.00 | 65 | 1009.5 |
| 20260505201501 | 12 | 302 | 12.9 | 12.9 | 0.00 | 0.08 | 0.00 | 65 | 1009.5 |
| 20260505200001 | 12 | 320 | 12.9 | 35.4 | 0.00 | 0.08 | 0.00 | 65 | 1009.5 |
| 20260505194501 | 12 | 5 | 9.7 | 12.9 | 0.00 | 0.08 | 0.00 | 65 | 1009.5 |
| 20260505193001 | 12 | 31 | 6.4 | 9.7 | 0.00 | 0.08 | 0.00 | 67 | 1009.5 |
| 20260505191501 | 12 | 24 | 6.4 | 12.9 | 0.00 | 0.08 | 0.00 | 67 | 1009.5 |
| 20260505190001 | 12 | 96 | 12.9 | 20.9 | 0.00 | 0.08 | 0.00 | 67 | 1008.5 |
| 20260505184501 | 12 | 310 | 6.4 | 9.7 | 0.00 | 0.08 | 0.00 | 67 | 1008.5 |
| 20260505183001 | 13 | 43 | 6.4 | 17.7 | 0.00 | 0.08 | 0.00 | 65 | 1008.5 |
| 20260505181501 | 12 | 58 | 9.7 | 27.4 | 0.00 | 0.08 | 0.00 | 67 | 1008.5 |
| 20260505180001 | 12 | 357 | 17.7 | 27.4 | 0.00 | 0.08 | 0.00 | 68 | 1008.5 |
| 20260505174501 | 12 | 255 | 9.7 | 12.9 | 0.00 | 0.08 | 0.00 | 71 | 1008.5 |
| 20260505173001 | 12 | 69 | 3.2 | 17.7 | 0.00 | 0.08 | 0.00 | 73 | 1008.5 |
| 20260505171501 | 12 | 17 | 20.9 | 24.1 | 0.00 | 0.08 | 0.00 | 73 | 1007.5 |
| 20260505170002 | 12 | 42 | 12.9 | 20.9 | 0.00 | 0.08 | 0.00 | 74 | 1007.5 |
| 20260505164501 | 12 | 352 | 12.9 | 17.7 | 0.00 | 0.08 | 0.00 | 75 | 1007.5 |
| 20260505163001 | 12 | 39 | 3.2 | 17.7 | 0.00 | 0.08 | 0.00 | 76 | 1007.5 |
| 20260505161501 | 12 | 294 | 3.2 | 41.8 | 0.00 | 0.08 | 0.00 | 77 | 1006.4 |
| 20260505153001 | 13 | 315 | 0.0 | 3.2 | 0.00 | 0.08 | 0.00 | 83 | 1006.4 |
| 20260505151501 | 13 | 15 | 6.4 | 27.4 | 0.00 | 0.08 | 0.00 | 81 | 1006.4 |
| 20260505124501 | 18 | 14 | 6.4 | 17.7 | 0.00 | 0.08 | 0.00 | 79 | 1004.7 |
| 20260505123001 | 18 | 94 | 6.4 | 12.9 | 0.00 | 0.08 | 0.00 | 76 | 1004.7 |
| 20260505121501 | 18 | 264 | 3.2 | 3.2 | 0.00 | 0.08 | 0.00 | 77 | 1004.7 |
| 20260505120001 | 18 | 64 | 0.0 | 3.2 | 0.00 | 0.08 | 0.00 | 79 | 1004.7 |
| 20260505114501 | 18 | 73 | 6.4 | 6.4 | 0.00 | 0.08 | 0.00 | 79 | 1003.7 |
| 20260505113002 | 18 | 86 | 6.4 | 6.4 | 0.00 | 0.08 | 0.00 | 79 | 1003.7 |
| 20260505111502 | 18 | 81 | 3.2 | 6.4 | 0.00 | 0.08 | 0.00 | 79 | 1003.7 |
| 20260505101501 | 17 | 92 | 9.7 | 12.9 | 0.00 | 0.08 | 0.00 | 80 | 1003.7 |
| 20260505100001 | 17 | 332 | 3.2 | 12.9 | 0.00 | 0.08 | 0.00 | 80 | 1003.7 |
| 20260505094501 | 18 | 46 | 17.7 | 9.7 | 0.00 | 0.08 | 0.00 | 80 | 1003.7 |
| 20260505093001 | 18 | 78 | 24.1 | 32.2 | 0.00 | 0.08 | 0.00 | 79 | 1002.7 |
| 20260505091501 | 18 | 72 | 17.7 | 17.7 | 0.00 | 0.08 | 0.00 | 79 | 1003.7 |
| 20260505090001 | 18 | 51 | 3.2 | 9.7 | 0.00 | 0.08 | 0.00 | 77 | 1002.7 |
| 20260505084501 | 18 | 93 | 0.0 | 9.7 | 0.00 | 0.08 | 0.00 | 77 | 1002.7 |
| 20260505083002 | 18 | 75 | 17.7 | 17.7 | 0.00 | 0.08 | 0.00 | 75 | 1002.7 |
| 20260505081501 | 18 | 84 | 6.4 | 12.9 | 0.00 | 0.08 | 0.00 | 74 | 1002.7 |
| 20260505080001 | 18 | 99 | 12.9 | 12.9 | 0.00 | 0.08 | 0.00 | 74 | 1002.7 |
| 20260505074501 | 18 | 40 | 9.7 | 12.9 | 0.00 | 0.08 | 0.00 | 73 | 1003.7 |
| 20260505073001 | 18 | 75 | 12.9 | 35.4 | 0.00 | 0.08 | 0.00 | 74 | 1003.7 |
| 20260505071501 | 19 | 74 | 9.7 | 20.9 | 0.00 | 0.08 | 0.00 | 72 | 1003.7 |
| 20260505070001 | 19 | 98 | 9.7 | 9.7 | 0.00 | 0.08 | 0.00 | 74 | 1003.7 |
| 20260505064506 | 19 | 140 | 6.4 | 20.9 | 0.00 | 0.08 | 0.00 | 75 | 1004.7 |
| 20260505063001 | 18 | 74 | 0.0 | 6.4 | 0.00 | 0.08 | 0.00 | 75 | 1004.7 |
| 20260505061501 | 18 | 105 | 6.4 | 12.9 | 0.00 | 0.08 | 0.00 | 77 | 1004.7 |
| 20260505060001 | 18 | 355 | 6.4 | 6.4 | 0.00 | 0.08 | 0.00 | 76 | 1004.7 |
| 20260505053001 | 18 | 14 | 6.4 | 6.4 | 0.00 | 0.08 | 0.00 | 79 | 1004.7 |
| 20260505051501 | 19 | 345 | 3.2 | 6.4 | 0.00 | 0.08 | 0.00 | 79 | 1003.7 |
| 20260505041502 | 20 | 95 | 6.4 | 3.2 | 0.08 | 0.08 | 0.00 | 68 | 1003.7 |
| 20260505040001 | 20 | 92 | 12.9 | 12.9 | 0.05 | 0.05 | 0.00 | 66 | 1003.7 |
| 20260505034501 | 20 | 154 | 6.4 | 12.9 | 0.05 | 0.05 | 0.00 | 70 | 1003.7 |
| 20260505033002 | 21 | 153 | 12.9 | 17.7 | 0.00 | 0.00 | 0.00 | 59 | 1004.7 |
| 20260505031501 | 21 | 99 | 9.7 | 12.9 | 0.00 | 0.00 | 0.00 | 58 | 1003.7 |
| 20260505030001 | 22 | 60 | 9.7 | 12.9 | 0.00 | 0.00 | 0.00 | 57 | 1003.7 |
| 20260505024501 | 22 | 138 | 9.7 | 9.7 | 0.00 | 0.00 | 0.00 | 57 | 1004.7 |
| 20260505023001 | 22 | 140 | 6.4 | 6.4 | 0.00 | 0.00 | 0.00 | 57 | 1004.7 |
| 20260505021501 | 22 | 156 | 6.4 | 6.4 | 0.00 | 0.00 | 0.00 | 57 | 1004.7 |